| time (UTC) | temp F | wind direction | speed knots | gust knots | rain 1hr in | rain 24hr in | rain mn in | humidity % | barometer mb |
| 20260502152022 | 46 | 284 | 2.6 | 2.6 | 0.00 | 0.00 | 0.00 | 49 | 1017.2 |
| 20260502151519 | 45 | 317 | 3.5 | 4.3 | 0.00 | 0.00 | 0.00 | 48 | 1017.5 |
| 20260502151016 | 44 | 313 | 2.6 | 2.6 | 0.00 | 0.00 | 0.00 | 49 | 1017.4 |
| 20260502150514 | 46 | 36 | 3.5 | 4.3 | 0.00 | 0.00 | 0.00 | 52 | 1017.5 |
| 20260502130358 | 41 | 343 | 0.9 | 0.9 | 0.00 | 0.00 | 0.00 | 74 | 1017.8 |
| 20260502123341 | 40 | 329 | 4.3 | 4.3 | 0.00 | 0.00 | 0.00 | 74 | 1017.7 |
| 20260502122838 | 41 | 329 | 1.7 | 1.7 | 0.00 | 0.00 | 0.00 | 76 | 1018.0 |
| 20260502122333 | 40 | 294 | 1.7 | 1.7 | 0.00 | 0.00 | 0.00 | 76 | 1018.1 |
| 20260502121833 | 40 | 258 | 0.9 | 1.7 | 0.00 | 0.00 | 0.00 | 77 | 1017.8 |
| 20260502121329 | 40 | 276 | 0.9 | 0.9 | 0.00 | 0.00 | 0.00 | 77 | 1017.8 |
| 20260502120827 | 39 | 304 | 0.9 | 0.9 | 0.00 | 0.00 | 0.00 | 78 | 1017.8 |
| 20260502120323 | 39 | 275 | 0.9 | 0.9 | 0.00 | 0.00 | 0.00 | 79 | 1018.1 |
| 20260502115820 | 38 | 310 | 1.7 | 1.7 | 0.00 | 0.00 | 0.00 | 81 | 1017.8 |
| 20260502115317 | 38 | 299 | 1.7 | 1.7 | 0.00 | 0.00 | 0.00 | 82 | 1018.2 |
| 20260502114814 | 37 | 298 | 1.7 | 1.7 | 0.00 | 0.00 | 0.00 | 83 | 1018.0 |
| 20260502114310 | 37 | 288 | 0.0 | 0.0 | 0.00 | 0.00 | 0.00 | 84 | 1018.0 |
| 20260502113808 | 36 | 276 | 0.0 | 0.9 | 0.00 | 0.00 | 0.00 | 85 | 1017.8 |
| 20260502113305 | 36 | 285 | 0.0 | 0.0 | 0.00 | 0.00 | 0.00 | 86 | 1017.7 |
| 20260502112803 | 36 | 286 | 0.0 | 0.0 | 0.00 | 0.00 | 0.00 | 86 | 1017.7 |
| 20260502112300 | 35 | 286 | 0.0 | 0.0 | 0.00 | 0.00 | 0.00 | 86 | 1017.7 |
| 20260502111757 | 35 | 286 | 0.0 | 0.0 | 0.00 | 0.00 | 0.00 | 86 | 1017.4 |
| 20260502111255 | 35 | 286 | 0.0 | 0.0 | 0.00 | 0.00 | 0.00 | 86 | 1017.5 |
| 20260502110752 | 35 | 286 | 0.0 | 0.0 | 0.00 | 0.00 | 0.00 | 85 | 1017.5 |
| 20260502110250 | 35 | 286 | 0.0 | 0.0 | 0.00 | 0.00 | 0.00 | 85 | 1017.3 |
| 20260502105748 | 36 | 287 | 0.0 | 0.0 | 0.00 | 0.00 | 0.00 | 85 | 1017.4 |
| 20260502105244 | 36 | 287 | 0.0 | 0.0 | 0.00 | 0.00 | 0.00 | 85 | 1017.3 |
| 20260502104742 | 36 | 287 | 0.0 | 0.0 | 0.00 | 0.00 | 0.00 | 84 | 1017.4 |
| 20260502104239 | 36 | 287 | 0.0 | 0.0 | 0.00 | 0.00 | 0.00 | 84 | 1017.2 |
| 20260502103737 | 36 | 287 | 0.0 | 0.0 | 0.00 | 0.00 | 0.00 | 84 | 1017.3 |
| 20260502103234 | 36 | 287 | 0.0 | 0.0 | 0.00 | 0.00 | 0.00 | 83 | 1017.4 |
| 20260502102731 | 36 | 287 | 0.0 | 0.0 | 0.00 | 0.00 | 0.00 | 83 | 1017.2 |
| 20260502102227 | 37 | 289 | 0.0 | 0.0 | 0.00 | 0.00 | 0.00 | 83 | 1017.3 |
| 20260502101726 | 37 | 290 | 0.0 | 0.0 | 0.00 | 0.00 | 0.00 | 83 | 1017.4 |
| 20260502101224 | 37 | 290 | 0.0 | 0.0 | 0.00 | 0.00 | 0.00 | 83 | 1017.3 |
| 20260502100721 | 37 | 290 | 0.0 | 0.0 | 0.00 | 0.00 | 0.00 | 83 | 1017.3 |
| 20260502100220 | 37 | 290 | 0.0 | 0.0 | 0.00 | 0.00 | 0.00 | 83 | 1017.4 |
| 20260502091153 | 37 | 292 | 0.0 | 0.0 | 0.00 | 0.00 | 0.00 | 81 | 1017.2 |
| 20260502090651 | 37 | 293 | 0.0 | 0.0 | 0.00 | 0.00 | 0.00 | 81 | 1017.2 |
| 20260502090148 | 37 | 295 | 0.0 | 0.0 | 0.00 | 0.00 | 0.00 | 80 | 1016.9 |
| 20260502071049 | 38 | 297 | 0.0 | 0.9 | 0.00 | 0.00 | 0.00 | 79 | 1016.8 |
| 20260502070547 | 38 | 328 | 0.9 | 0.9 | 0.00 | 0.00 | 0.00 | 79 | 1016.7 |
| 20260502070045 | 38 | 314 | 0.9 | 0.9 | 0.00 | 0.00 | 0.00 | 79 | 1016.8 |
| 20260502065543 | 38 | 296 | 0.0 | 0.9 | 0.00 | 0.00 | 0.00 | 79 | 1016.9 |
| 20260502065040 | 38 | 301 | 0.0 | 0.0 | 0.00 | 0.00 | 0.00 | 78 | 1017.0 |
| 20260502064539 | 38 | 307 | 0.9 | 0.9 | 0.00 | 0.00 | 0.00 | 79 | 1017.0 |
| 20260502064035 | 38 | 294 | 0.0 | 0.0 | 0.00 | 0.00 | 0.00 | 78 | 1016.8 |
| 20260502063533 | 38 | 292 | 0.0 | 0.9 | 0.00 | 0.00 | 0.00 | 78 | 1017.0 |
| 20260502063031 | 38 | 287 | 0.0 | 0.0 | 0.00 | 0.00 | 0.00 | 78 | 1016.9 |
| 20260502062528 | 38 | 286 | 0.0 | 0.9 | 0.00 | 0.00 | 0.00 | 78 | 1017.0 |
| 20260502062026 | 38 | 301 | 0.0 | 0.9 | 0.00 | 0.00 | 0.00 | 78 | 1017.0 |
| 20260502061524 | 38 | 292 | 0.0 | 0.0 | 0.00 | 0.00 | 0.00 | 78 | 1017.1 |
| 20260502061021 | 38 | 295 | 0.0 | 0.0 | 0.00 | 0.00 | 0.00 | 78 | 1017.0 |
| 20260502060516 | 38 | 295 | 0.0 | 0.0 | 0.00 | 0.00 | 0.00 | 78 | 1017.1 |
| 20260502060013 | 38 | 297 | 0.0 | 0.0 | 0.00 | 0.00 | 0.00 | 77 | 1017.2 |
| 20260502055510 | 39 | 292 | 0.0 | 0.0 | 0.00 | 0.00 | 0.00 | 77 | 1017.3 |
| 20260502055009 | 39 | 298 | 0.0 | 0.9 | 0.00 | 0.00 | 0.00 | 77 | 1017.3 |
| 20260502054507 | 39 | 295 | 0.0 | 0.0 | 0.00 | 0.00 | 0.00 | 77 | 1017.2 |
| 20260502054004 | 39 | 301 | 0.0 | 0.9 | 0.00 | 0.00 | 0.00 | 76 | 1017.2 |
| 20260502053501 | 39 | 168 | 0.9 | 1.7 | 0.00 | 0.00 | 0.00 | 76 | 1017.2 |
| 20260502052959 | 39 | 267 | 0.0 | 0.0 | 0.00 | 0.00 | 0.00 | 76 | 1017.2 |
| 20260502052456 | 39 | 198 | 1.7 | 1.7 | 0.00 | 0.00 | 0.00 | 76 | 1017.1 |
| 20260502051955 | 39 | 250 | 0.9 | 0.9 | 0.00 | 0.00 | 0.00 | 76 | 1017.3 |
| 20260502051453 | 39 | 254 | 0.0 | 0.9 | 0.00 | 0.00 | 0.00 | 75 | 1017.2 |
| 20260502050949 | 39 | 154 | 0.9 | 1.7 | 0.00 | 0.00 | 0.00 | 75 | 1017.0 |
| 20260502050446 | 39 | 261 | 0.0 | 0.9 | 0.00 | 0.00 | 0.00 | 76 | 1017.1 |
| 20260502045943 | 39 | 207 | 0.9 | 0.9 | 0.00 | 0.00 | 0.00 | 77 | 1017.1 |
| 20260502045439 | 39 | 72 | 0.9 | 1.7 | 0.00 | 0.00 | 0.00 | 77 | 1017.2 |
| 20260502044937 | 39 | 260 | 0.0 | 0.9 | 0.00 | 0.00 | 0.00 | 77 | 1017.2 |
| 20260502044432 | 39 | 231 | 0.9 | 0.9 | 0.00 | 0.00 | 0.00 | 76 | 1017.2 |
| 20260502043930 | 39 | 91 | 1.7 | 1.7 | 0.00 | 0.00 | 0.00 | 75 | 1017.2 |
| 20260502043427 | 39 | 5 | 0.0 | 0.9 | 0.00 | 0.00 | 0.00 | 75 | 1017.0 |
| 20260502042927 | 39 | 22 | 0.9 | 1.7 | 0.00 | 0.00 | 0.00 | 75 | 1016.9 |
| 20260502042424 | 39 | 356 | 2.6 | 2.6 | 0.00 | 0.00 | 0.00 | 76 | 1017.0 |
| 20260502041921 | 39 | 322 | 1.7 | 1.7 | 0.00 | 0.00 | 0.00 | 76 | 1016.8 |
| 20260502041419 | 39 | 337 | 0.9 | 0.9 | 0.00 | 0.00 | 0.00 | 76 | 1016.8 |
| 20260502040916 | 40 | 58 | 2.6 | 2.6 | 0.00 | 0.00 | 0.00 | 76 | 1016.8 |
| 20260502040412 | 40 | 100 | 1.7 | 1.7 | 0.00 | 0.00 | 0.00 | 76 | 1016.5 |
| 20260502035909 | 40 | 85 | 2.6 | 5.2 | 0.00 | 0.00 | 0.00 | 75 | 1016.4 |
| 20260502035405 | 40 | 325 | 0.9 | 0.9 | 0.00 | 0.00 | 0.00 | 75 | 1016.6 |
| 20260502034903 | 40 | 304 | 0.9 | 2.6 | 0.00 | 0.00 | 0.00 | 75 | 1016.6 |
| 20260502034402 | 40 | 30 | 1.7 | 1.7 | 0.00 | 0.00 | 0.00 | 75 | 1016.6 |
| 20260502033900 | 40 | 333 | 0.9 | 1.7 | 0.00 | 0.00 | 0.00 | 74 | 1016.6 |
| 20260502033356 | 41 | 44 | 2.6 | 4.3 | 0.00 | 0.00 | 0.00 | 74 | 1016.4 |
| 20260502032853 | 41 | 10 | 0.9 | 1.7 | 0.00 | 0.00 | 0.00 | 74 | 1016.3 |
| 20260502032349 | 41 | 333 | 1.7 | 1.7 | 0.00 | 0.00 | 0.00 | 74 | 1016.1 |
| 20260502031847 | 41 | 54 | 2.6 | 4.3 | 0.00 | 0.00 | 0.00 | 75 | 1016.2 |
| 20260502031345 | 42 | 28 | 5.2 | 7.0 | 0.00 | 0.00 | 0.00 | 75 | 1016.2 |
| 20260502030843 | 42 | 306 | 0.0 | 0.9 | 0.00 | 0.00 | 0.00 | 75 | 1016.1 |
| 20260502030341 | 42 | 91 | 3.5 | 5.2 | 0.00 | 0.00 | 0.00 | 74 | 1015.9 |
| 20260502025838 | 42 | 40 | 1.7 | 1.7 | 0.00 | 0.00 | 0.00 | 74 | 1016.2 |
| 20260502025336 | 43 | 113 | 3.5 | 4.3 | 0.00 | 0.00 | 0.00 | 73 | 1015.9 |
| 20260502024833 | 44 | 60 | 1.7 | 2.6 | 0.00 | 0.00 | 0.00 | 69 | 1015.9 |
| 20260502024331 | 45 | 278 | 0.9 | 0.9 | 0.00 | 0.00 | 0.00 | 62 | 1015.7 |
| 20260502023829 | 45 | 277 | 0.9 | 1.7 | 0.00 | 0.00 | 0.00 | 61 | 1016.0 |
| 20260502023326 | 45 | 278 | 1.7 | 1.7 | 0.00 | 0.00 | 0.00 | 61 | 1015.8 |
| 20260502022824 | 45 | 273 | 2.6 | 2.6 | 0.00 | 0.00 | 0.00 | 61 | 1015.8 |
| 20260502022320 | 45 | 314 | 1.7 | 1.7 | 0.00 | 0.00 | 0.00 | 60 | 1015.8 |
| 20260502021817 | 45 | 301 | 2.6 | 4.3 | 0.00 | 0.00 | 0.00 | 60 | 1015.6 |
| 20260502021314 | 45 | 339 | 2.6 | 2.6 | 0.00 | 0.00 | 0.00 | 60 | 1015.4 |
| 20260502020811 | 45 | 290 | 2.6 | 4.3 | 0.00 | 0.00 | 0.00 | 60 | 1015.5 |
| 20260502020309 | 45 | 313 | 2.6 | 2.6 | 0.00 | 0.00 | 0.00 | 61 | 1015.4 |
| 20260502015806 | 45 | 303 | 2.6 | 4.3 | 0.00 | 0.00 | 0.00 | 59 | 1015.6 |
| 20260502015305 | 45 | 301 | 1.7 | 1.7 | 0.00 | 0.00 | 0.00 | 60 | 1015.4 |
| 20260502014800 | 45 | 317 | 1.7 | 1.7 | 0.00 | 0.00 | 0.00 | 59 | 1015.5 |
| 20260502014257 | 45 | 316 | 1.7 | 1.7 | 0.00 | 0.00 | 0.00 | 62 | 1015.4 |
| 20260502013753 | 45 | 305 | 2.6 | 2.6 | 0.00 | 0.00 | 0.00 | 61 | 1015.4 |
| 20260502013249 | 45 | 295 | 2.6 | 2.6 | 0.00 | 0.00 | 0.00 | 63 | 1015.3 |
| 20260502012745 | 45 | 301 | 0.9 | 0.9 | 0.00 | 0.00 | 0.00 | 62 | 1015.3 |
| 20260502012243 | 45 | 305 | 0.0 | 0.0 | 0.00 | 0.00 | 0.00 | 62 | 1015.2 |
| 20260502011741 | 45 | 301 | 0.9 | 0.9 | 0.00 | 0.00 | 0.00 | 62 | 1015.2 |
| 20260502011236 | 45 | 294 | 0.0 | 0.9 | 0.00 | 0.00 | 0.00 | 62 | 1015.3 |
| 20260502010734 | 45 | 304 | 1.7 | 1.7 | 0.00 | 0.00 | 0.00 | 61 | 1015.0 |
| 20260502010230 | 45 | 293 | 0.9 | 1.7 | 0.00 | 0.00 | 0.00 | 62 | 1015.1 |
| 20260502005727 | 45 | 315 | 0.9 | 1.7 | 0.00 | 0.00 | 0.00 | 61 | 1015.1 |
| 20260502005225 | 45 | 320 | 0.9 | 0.9 | 0.00 | 0.00 | 0.00 | 62 | 1015.2 |
| 20260502004721 | 45 | 299 | 0.9 | 0.9 | 0.00 | 0.00 | 0.00 | 61 | 1014.9 |
| 20260502004218 | 46 | 292 | 0.9 | 0.9 | 0.00 | 0.00 | 0.00 | 62 | 1015.1 |
| 20260502003716 | 46 | 345 | 0.9 | 0.9 | 0.00 | 0.00 | 0.00 | 62 | 1015.0 |
| 20260502003213 | 46 | 307 | 1.7 | 2.6 | 0.00 | 0.00 | 0.00 | 62 | 1014.9 |
| 20260502002708 | 46 | 307 | 2.6 | 2.6 | 0.00 | 0.00 | 0.00 | 62 | 1014.9 |
| 20260502002207 | 46 | 310 | 0.9 | 1.7 | 0.00 | 0.00 | 0.00 | 62 | 1014.8 |
| 20260502001703 | 46 | 302 | 1.7 | 1.7 | 0.00 | 0.00 | 0.00 | 63 | 1015.0 |
| 20260502001201 | 46 | 301 | 0.9 | 1.7 | 0.00 | 0.00 | 0.00 | 62 | 1014.8 |
| 20260502000659 | 46 | 341 | 2.6 | 4.3 | 0.00 | 0.00 | 0.00 | 62 | 1014.6 |
| 20260502000156 | 46 | 286 | 0.9 | 0.9 | 0.00 | 0.00 | 0.00 | 62 | 1014.6 |
| 20260501235652 | 46 | 307 | 1.7 | 1.7 | 0.00 | 0.00 | 0.00 | 63 | 1014.7 |
| 20260501235148 | 46 | 298 | 0.9 | 0.9 | 0.00 | 0.00 | 0.00 | 64 | 1014.5 |
| 20260501234644 | 46 | 292 | 0.9 | 0.9 | 0.00 | 0.00 | 0.00 | 64 | 1014.7 |
| 20260501234141 | 46 | 303 | 0.9 | 0.9 | 0.00 | 0.00 | 0.00 | 64 | 1014.4 |
| 20260501233639 | 46 | 350 | 0.9 | 1.7 | 0.00 | 0.00 | 0.00 | 65 | 1014.4 |
| 20260501233136 | 46 | 321 | 1.7 | 1.7 | 0.00 | 0.00 | 0.00 | 64 | 1014.5 |
| 20260501232632 | 46 | 329 | 2.6 | 2.6 | 0.00 | 0.00 | 0.00 | 64 | 1014.3 |
| 20260501232130 | 46 | 334 | 3.5 | 5.2 | 0.00 | 0.00 | 0.00 | 63 | 1014.4 |
| 20260501231627 | 47 | 334 | 4.3 | 5.2 | 0.00 | 0.00 | 0.00 | 61 | 1014.5 |
| 20260501231125 | 46 | 287 | 3.5 | 5.2 | 0.00 | 0.00 | 0.00 | 61 | 1014.6 |
| 20260501230624 | 47 | 289 | 2.6 | 4.3 | 0.00 | 0.00 | 0.00 | 61 | 1014.5 |
| 20260501230121 | 47 | 327 | 5.2 | 6.1 | 0.00 | 0.00 | 0.00 | 60 | 1014.3 |
| 20260501225619 | 47 | 299 | 1.7 | 1.7 | 0.00 | 0.00 | 0.00 | 60 | 1014.2 |
| 20260501225115 | 47 | 301 | 3.5 | 5.2 | 0.00 | 0.00 | 0.00 | 60 | 1014.2 |
| 20260501224612 | 47 | 325 | 2.6 | 4.3 | 0.00 | 0.00 | 0.00 | 60 | 1014.3 |
| 20260501224109 | 48 | 337 | 4.3 | 5.2 | 0.00 | 0.00 | 0.00 | 58 | 1014.3 |
| 20260501223606 | 48 | 286 | 3.5 | 5.2 | 0.00 | 0.00 | 0.00 | 55 | 1014.1 |
| 20260501223102 | 48 | 300 | 5.2 | 7.0 | 0.00 | 0.00 | 0.00 | 56 | 1014.1 |
| 20260501222558 | 48 | 319 | 6.1 | 7.0 | 0.00 | 0.00 | 0.00 | 55 | 1014.0 |
| 20260501222055 | 49 | 344 | 2.6 | 4.3 | 0.00 | 0.00 | 0.00 | 54 | 1013.9 |
| 20260501221552 | 49 | 323 | 2.6 | 4.3 | 0.00 | 0.00 | 0.00 | 53 | 1013.7 |
| 20260501221049 | 49 | 333 | 3.5 | 4.3 | 0.00 | 0.00 | 0.00 | 52 | 1014.0 |
| 20260501220547 | 49 | 315 | 2.6 | 2.6 | 0.00 | 0.00 | 0.00 | 53 | 1013.8 |
| 20260501220044 | 49 | 302 | 0.9 | 1.7 | 0.00 | 0.00 | 0.00 | 53 | 1013.7 |
| 20260501215540 | 49 | 310 | 1.7 | 2.6 | 0.00 | 0.00 | 0.00 | 54 | 1013.6 |
| 20260501215035 | 49 | 280 | 2.6 | 2.6 | 0.00 | 0.00 | 0.00 | 53 | 1013.7 |
| 20260501214531 | 49 | 325 | 3.5 | 4.3 | 0.00 | 0.00 | 0.00 | 53 | 1013.6 |
| 20260501214027 | 49 | 328 | 2.6 | 2.6 | 0.00 | 0.00 | 0.00 | 53 | 1013.6 |
| 20260501213524 | 49 | 301 | 2.6 | 2.6 | 0.00 | 0.00 | 0.00 | 54 | 1013.7 |
| 20260501213020 | 49 | 323 | 1.7 | 2.6 | 0.00 | 0.00 | 0.00 | 54 | 1013.9 |
| 20260501212516 | 49 | 322 | 3.5 | 4.3 | 0.00 | 0.00 | 0.00 | 56 | 1013.6 |
| 20260501212014 | 49 | 308 | 2.6 | 4.3 | 0.00 | 0.00 | 0.00 | 55 | 1013.6 |
| 20260501211510 | 50 | 30 | 2.6 | 4.3 | 0.00 | 0.00 | 0.00 | 54 | 1013.6 |
| 20260501211008 | 49 | 359 | 2.6 | 4.3 | 0.00 | 0.00 | 0.00 | 53 | 1013.4 |
| 20260501210504 | 50 | 3 | 2.6 | 2.6 | 0.00 | 0.00 | 0.00 | 53 | 1013.3 |
| 20260501210001 | 50 | 325 | 3.5 | 4.3 | 0.00 | 0.00 | 0.00 | 53 | 1013.3 |
| 20260501205458 | 49 | 335 | 4.3 | 5.2 | 0.00 | 0.00 | 0.00 | 52 | 1013.3 |
| 20260501204955 | 49 | 327 | 3.5 | 5.2 | 0.00 | 0.00 | 0.00 | 51 | 1013.4 |
| 20260501204451 | 49 | 305 | 2.6 | 2.6 | 0.00 | 0.00 | 0.00 | 52 | 1013.4 |
| 20260501203947 | 49 | 299 | 3.5 | 4.3 | 0.00 | 0.00 | 0.00 | 52 | 1013.5 |
| 20260501203444 | 49 | 321 | 4.3 | 4.3 | 0.00 | 0.00 | 0.00 | 53 | 1013.2 |
| 20260501202942 | 50 | 321 | 2.6 | 2.6 | 0.00 | 0.00 | 0.00 | 52 | 1013.3 |
| 20260501202438 | 50 | 323 | 4.3 | 6.1 | 0.00 | 0.00 | 0.00 | 53 | 1013.2 |
| 20260501201934 | 50 | 284 | 2.6 | 2.6 | 0.00 | 0.00 | 0.00 | 52 | 1012.9 |
| 20260501201432 | 50 | 341 | 4.3 | 7.0 | 0.00 | 0.00 | 0.00 | 51 | 1013.0 |
| 20260501200929 | 51 | 278 | 3.5 | 4.3 | 0.00 | 0.00 | 0.00 | 50 | 1013.3 |
| 20260501200426 | 50 | 268 | 1.7 | 2.6 | 0.00 | 0.00 | 0.00 | 51 | 1013.0 |
| 20260501195923 | 51 | 300 | 4.3 | 6.1 | 0.00 | 0.00 | 0.00 | 50 | 1013.0 |
| 20260501195420 | 50 | 322 | 2.6 | 2.6 | 0.00 | 0.00 | 0.00 | 51 | 1013.0 |
| 20260501194915 | 50 | 266 | 1.7 | 2.6 | 0.00 | 0.00 | 0.00 | 51 | 1013.3 |
| 20260501194412 | 51 | 330 | 2.6 | 2.6 | 0.00 | 0.00 | 0.00 | 53 | 1013.2 |
| 20260501193908 | 50 | 320 | 2.6 | 2.6 | 0.00 | 0.00 | 0.00 | 52 | 1013.3 |
| 20260501193406 | 50 | 320 | 3.5 | 4.3 | 0.00 | 0.00 | 0.00 | 52 | 1012.9 |
| 20260501192903 | 50 | 320 | 2.6 | 4.3 | 0.00 | 0.00 | 0.00 | 52 | 1013.0 |
| 20260501192400 | 50 | 349 | 1.7 | 1.7 | 0.00 | 0.00 | 0.00 | 53 | 1012.9 |
| 20260501191857 | 50 | 328 | 4.3 | 5.2 | 0.00 | 0.00 | 0.00 | 52 | 1012.8 |
| 20260501191355 | 50 | 0 | 3.5 | 4.3 | 0.00 | 0.00 | 0.00 | 52 | 1012.9 |
| 20260501190852 | 50 | 322 | 2.6 | 4.3 | 0.00 | 0.00 | 0.00 | 52 | 1013.0 |
| 20260501190347 | 50 | 328 | 3.5 | 4.3 | 0.00 | 0.00 | 0.00 | 53 | 1012.8 |
| 20260501185842 | 50 | 353 | 5.2 | 6.1 | 0.00 | 0.00 | 0.00 | 53 | 1012.7 |
| 20260501185339 | 50 | 36 | 3.5 | 5.2 | 0.00 | 0.00 | 0.00 | 52 | 1012.8 |
| 20260501184835 | 50 | 19 | 2.6 | 2.6 | 0.00 | 0.00 | 0.00 | 52 | 1012.7 |
| 20260501184331 | 50 | 2 | 1.7 | 1.7 | 0.00 | 0.00 | 0.00 | 50 | 1012.9 |
| 20260501183826 | 50 | 358 | 0.9 | 0.9 | 0.00 | 0.00 | 0.00 | 51 | 1012.7 |
| 20260501183324 | 51 | 350 | 2.6 | 2.6 | 0.00 | 0.00 | 0.00 | 49 | 1012.8 |
| 20260501182820 | 51 | 296 | 0.9 | 1.7 | 0.00 | 0.00 | 0.00 | 51 | 1012.7 |
| 20260501182317 | 50 | 312 | 0.0 | 0.9 | 0.00 | 0.00 | 0.00 | 52 | 1012.8 |
| 20260501181814 | 50 | 296 | 1.7 | 2.6 | 0.00 | 0.00 | 0.00 | 54 | 1012.9 |
| 20260501181311 | 50 | 300 | 4.3 | 7.0 | 0.00 | 0.00 | 0.00 | 53 | 1012.8 |
| 20260501180809 | 49 | 324 | 2.6 | 2.6 | 0.00 | 0.00 | 0.00 | 53 | 1012.7 |
| 20260501180304 | 49 | 266 | 2.6 | 4.3 | 0.00 | 0.00 | 0.00 | 54 | 1012.8 |
| 20260501175802 | 49 | 305 | 2.6 | 2.6 | 0.00 | 0.00 | 0.00 | 53 | 1012.7 |
| 20260501175259 | 49 | 347 | 3.5 | 4.3 | 0.00 | 0.00 | 0.00 | 56 | 1012.6 |
| 20260501174755 | 49 | 298 | 1.7 | 1.7 | 0.00 | 0.00 | 0.00 | 55 | 1012.7 |
| 20260501174252 | 50 | 303 | 2.6 | 2.6 | 0.00 | 0.00 | 0.00 | 55 | 1012.7 |
| 20260501173750 | 50 | 297 | 0.9 | 0.9 | 0.00 | 0.00 | 0.00 | 55 | 1012.7 |
| 20260501173247 | 50 | 320 | 0.9 | 1.7 | 0.00 | 0.00 | 0.00 | 57 | 1012.8 |
| 20260501172743 | 50 | 2 | 2.6 | 2.6 | 0.00 | 0.00 | 0.00 | 56 | 1012.7 |
| 20260501172238 | 50 | 302 | 1.7 | 1.7 | 0.00 | 0.00 | 0.00 | 58 | 1012.8 |
| 20260501171734 | 49 | 327 | 2.6 | 2.6 | 0.00 | 0.00 | 0.00 | 56 | 1012.8 |
| 20260501171232 | 49 | 329 | 4.3 | 5.2 | 0.00 | 0.00 | 0.00 | 56 | 1012.7 |
| 20260501170728 | 49 | 28 | 2.6 | 5.2 | 0.00 | 0.00 | 0.00 | 59 | 1012.8 |
| 20260501170225 | 48 | 324 | 1.7 | 2.6 | 0.00 | 0.00 | 0.00 | 63 | 1012.6 |
| 20260501165723 | 48 | 299 | 3.5 | 5.2 | 0.00 | 0.00 | 0.00 | 64 | 1012.9 |
| 20260501165220 | 49 | 301 | 1.7 | 2.6 | 0.00 | 0.00 | 0.00 | 63 | 1012.8 |
| 20260501164718 | 49 | 318 | 0.9 | 0.9 | 0.00 | 0.00 | 0.00 | 63 | 1012.9 |
| 20260501164215 | 49 | 352 | 4.3 | 5.2 | 0.00 | 0.00 | 0.00 | 62 | 1012.7 |
| 20260501163710 | 49 | 327 | 1.7 | 1.7 | 0.00 | 0.00 | 0.00 | 65 | 1012.9 |
| 20260501163208 | 52 | 330 | 3.5 | 4.3 | 0.00 | 0.00 | 0.00 | 62 | 1012.9 |
| 20260501162704 | 51 | 27 | 1.7 | 1.7 | 0.00 | 0.00 | 0.00 | 66 | 1013.0 |
| 20260501162200 | 49 | 355 | 1.7 | 1.7 | 0.00 | 0.00 | 0.00 | 67 | 1013.2 |
| 20260501161658 | 48 | 22 | 0.9 | 1.7 | 0.00 | 0.00 | 0.00 | 68 | 1013.2 |
| 20260501161154 | 48 | 64 | 2.6 | 2.6 | 0.00 | 0.00 | 0.00 | 71 | 1013.2 |
| 20260501160651 | 48 | 304 | 0.0 | 0.9 | 0.00 | 0.00 | 0.00 | 72 | 1013.4 |
| 20260501160148 | 47 | 297 | 0.0 | 0.9 | 0.00 | 0.00 | 0.00 | 73 | 1013.5 |
| 20260501155645 | 47 | 92 | 1.7 | 1.7 | 0.00 | 0.00 | 0.00 | 73 | 1013.5 |
| 20260501155142 | 46 | 317 | 3.5 | 4.3 | 0.00 | 0.00 | 0.00 | 76 | 1013.4 |